Tracking 32936 objects as of 16-Jan-2026
HD Live streaming from Space Station
objects crossing your sky now

CZ-3B DEB

Track CZ-3B DEB now!


NORAD ID: 42475
Int'l Code: 2011-077AQ
Perigee: 740.3 km
Apogee: 41,321.6 km
Inclination: 26.6 °
Period: 752.4 minutes
Semi major axis: 27401 km
RCS: Unknown
Launch date: December 19, 2011
Source: People's Republic of China (PRC)
Launch site: Xichang Space Center, China (XSC)

Note: This is SATELLITE DEBRIS
Your satellite tracking list
Your tracking list is empty




NASA's NSSDC Master Catalog

Two Line Element Set (TLE):
1 42475U 11077AQ  26015.99049336  .00000202  00000-0  85946-2 0  9993
2 42475  26.5739 345.4999 7404831  60.1784 353.0189  1.91394994 29977
Source of the keplerian elements: AFSPC